Regional Weather Roundup
Issued by NWS Green Bay, WI

Home | Current Version | Previous Version | Text Only | Print | Product List | Glossary On
Versions: 1 2 3 4 5 6 7 8 9 10 11 12 13 14 15 16 17 18 19 20 21 22 23 24 25 26 27 28 29 30 31 32 33 34 35 36 37 38 39 40 41 42 43 44 45 46 47 48 49 50
000
ASUS43 KGRB 072200
RWRGRB

NORTH-CENTRAL AND NORTHEAST WISCONSIN REGIONAL WEATHER ROUNDUP
NATIONAL WEATHER SERVICE GREEN BAY WI
500 PM CDT TUE JUL 07 2015

WIZ005-009-010>012-018-019-072300-
NORTH CENTRAL WISCONSIN

CITY           SKY/WX    TMP DP  RH WIND       PRES   REMARKS
IRONWOOD       SUNNY     64  39  39 W6        30.10S
MANITOWISH WTR NOT AVBL
ARBOR VITAE    NOT AVBL
EAGLE RIVER    NOT AVBL
LAND O LAKES   NOT AVBL
RHINELANDER    MOSUNNY   68  45  43 VRB5      30.11S
PHILLIPS       NOT AVBL
ANTIGO         NOT AVBL
TOMAHAWK       NOT AVBL
MERRILL        NOT AVBL
$$

WIZ013-073-072300-
NORTHEAST WISCONSIN

CITY           SKY/WX    TMP DP  RH WIND       PRES   REMARKS
IRON MOUNTAIN  PTSUNNY   68  47  46 NW12      30.07S
MARINETTE      MOSUNNY   68  46  45 N13       30.05S
$$

WIZ017-030-035>037-045-072300-
CENTRAL WISCONSIN

CITY           SKY/WX    TMP DP  RH WIND       PRES   REMARKS
MEDFORD        NOT AVBL
WAUSAU         MOSUNNY   71  46  40 N9        30.08S
MOSINEE        MOSUNNY   70  48  46 N10       30.10S
MARSHFIELD     MOSUNNY   71  46  40 NE12      30.09S
WISC RAPIDS    PTSUNNY   72  46  39 NE12      30.10S
STEVENS POINT  NOT AVBL
WAUPACA        NOT AVBL
SHAWANO        NOT AVBL
CLINTONVILLE   NOT AVBL
$$

WIZ038-039-048-051-072300-
FOX VALLEY

CITY           SKY/WX    TMP DP  RH WIND       PRES   REMARKS
NWS GREEN BAY  MOSUNNY   70  48  45 N14G20    30.06F
APPLETON       PTSUNNY   70  46  43 N12       30.07S
OSHKOSH        PTSUNNY   69  48  47 NE13      30.06S
FOND DU LAC    SUNNY     69  49  48 NE9       30.07S
$$

WIZ022-050-052-072300-
EAST CENTRAL WISCONSIN

CITY           SKY/WX    TMP DP  RH WIND       PRES   REMARKS
STURGEON BAY   SUNNY     64  48  55 N10       30.09S
MANITOWOC      NOT AVBL
SHEBOYGAN      CLOUDY    62  50  64 E10       30.07R
$$

LMZ563-521-522-541>543-072300-
LAKESHORE

STATION/POSITION TIME  TEMP    WIND        PRES    VSBY  WAVE
                       AIR SEA DIR/SP/G                  HT/PER
                 (UTC) (F)     (DEG/KT/KT) (MB)    (MI)  (FT/S)
SHEBOYGAN LKSHOR 2100   57      40/  5/  5 1018.6R
KEWAUNEE LKSHORE 2100   60      80/  3/  6 1017.5R
NORTHPORT PIER   2100   62     350/ 14/ 16 1017.6R
N MID LAKE BUOY  2050   56 53  330/  8/ 10 1017.3R         2/ 3
S GREEN BAY BUOY 2100   66 68  360/ 12/ 14 1019.2R
SISTER BAY LKSHO 2114   67     360/ 15/ 19   N/A
STURGEON BAY CG  2105   67      10/  5     1018.2      6   1
CHAMBERS ISLAND  2100   64      20/ 11/ 12 1017.9R
MENOMINEE LKSHOR 2112   65     360/ 13/ 16 1018.4R
$$



USA.gov is the U.S. government's official web portal to all federal, state and local government web resources and services.